Location: ?????
(55.8833°N, 37.6500°E)
Time: 09:02:40
(UTC+00:00)

USA 238 - Pass Details

Date: 27 February 2020
Orbit: 1020 x 1192 km, 63.4° (Epoch: 12 March)

Event Time Altitude Azimuth Distance (km) Brightness Sun altitude
Rises 16:18:25 0° 305° (NW) 3,895 7.7 -12.0°
Reaches altitude 10° 16:21:03 10° 307° (NW) 2,960 6.9 -12.4°
Maximum altitude 16:28:08 80° 35° (NE) 1,154 3.8 -13.4°
Enters shadow 16:34:27 15° 122° (ESE) 2,702 5.3 -14.2°
